Moncks Corner, SC

6:37 PM EDT on June 23, 2017 (GMT -0400)
Moncks Corner

Weather History for KMKS - May, 2014

Change the Weather History Date:

Sunday, May 11, 2014

  Actual Average (KCHS) Record (KCHS)
Temperature  
Mean Temperature 76 °F -  
Max Temperature 84 °F 81 °F 96 °F (1955)
Min Temperature 68 °F 58 °F 42 °F (1977)
Cooling Degree Days 11    
Growing Degree Days 26 (Base 50)    
Moisture  
Dew Point 71 °F    
Average Humidity 87    
Maximum Humidity 100    
Minimum Humidity 62    
Precipitation  
Precipitation 0.01 in - - ()
Sea Level Pressure  
Sea Level Pressure 30.12 in    
Wind  
Wind Speed 2 mph (SSW)    
Max Wind Speed 6 mph    
Max Gust Speed -    
Visibility 9 miles    
Events Rain , Thunderstorm    
Averages and records for this station are not official NWS values.
T = Trace of Precipitation, MM = Missing Value Source: NWS Daily Summary

Daily Weather History Graph

Daily Weather History Graph

Search for Another Location

Airport or City:

Trip Planner

Search our weather history database for the weather conditions in past years. The results will help you decide how hot, cold, wet, or windy it might be!

Date:

Astronomy

May. 11, 2014 Rise Set
Actual Time 6:23 AM EDT 8:10 PM EDT
Civil Twilight 5:56 AM EDT 8:37 PM EDT
Nautical Twilight 5:23 AM EDT 9:09 PM EDT
Astronomical Twilight 4:49 AM EDT 9:44 PM EDT
Moon 5:13 PM EDT (5/11) 4:16 AM EDT (5/11)
Length of Visible Light 14h 40m
Length of Day
13h 46m
Waxing Gibbous, 89% of the Moon is Illuminated
May 11
Waxing Gibbous
May 14
Full
May 21
Last Quarter
May 28
New
Jun 5
First Quarter

Hourly Weather History & Observations

Time (EDT) Temp. Heat Index Dew Point Humidity Pressure Visibility Wind Dir Wind Speed Gust Speed Precip Events Conditions
12:35 AM 75.2 °F - 71.6 °F 89% 30.12 in 10.0 mi SSW 4.6 mph - N/A   Clear
1:35 AM 75.2 °F - 71.6 °F 89% 30.12 in 10.0 mi SW 5.8 mph - N/A   Clear
2:15 AM 73.4 °F - 71.6 °F 94% 30.12 in 10.0 mi Calm Calm - N/A   Light Drizzle
3:15 AM 71.6 °F - 69.8 °F 94% 30.12 in 10.0 mi Calm Calm - N/A   Clear
4:55 AM 69.8 °F - 68.0 °F 94% 30.10 in 10.0 mi Calm Calm - N/A   Clear
5:55 AM 69.8 °F - 68.0 °F 94% 30.09 in 10.0 mi Calm Calm - N/A   Clear
6:15 AM 69.8 °F - 68.0 °F 94% 30.09 in 10.0 mi Calm Calm - N/A   Clear
6:35 AM 68.0 °F - 68.0 °F 100% 30.09 in 10.0 mi Calm Calm - N/A   Clear
7:15 AM 68.0 °F - 68.0 °F 100% 30.10 in 7.0 mi Calm Calm - N/A   Clear
8:35 AM 69.8 °F - 68.0 °F 94% 30.13 in 10.0 mi Calm Calm - N/A   Clear
8:55 AM 71.6 °F - 69.8 °F 94% 30.14 in 7.0 mi Calm Calm - N/A   Clear
9:15 AM 73.4 °F - 69.8 °F 88% 30.14 in 7.0 mi Calm Calm - N/A   Clear
10:55 AM 80.6 °F 84.6 °F 71.6 °F 74% 30.15 in 7.0 mi Calm Calm - N/A   Clear
11:35 AM 82.4 °F 86.3 °F 69.8 °F 66% 30.15 in 10.0 mi Calm Calm - N/A   Clear
12:15 PM 84.2 °F 89.6 °F 71.6 °F 66% 30.16 in 7.0 mi Calm Calm - N/A   Clear
1:35 PM 84.2 °F 88.4 °F 69.8 °F 62% 30.15 in 10.0 mi SW 3.5 mph - N/A   Clear
2:55 PM 84.2 °F 88.4 °F 69.8 °F 62% 30.13 in 10.0 mi SW 3.5 mph - N/A Rain Light Rain
3:55 PM 77.0 °F - 73.4 °F 89% 30.13 in 7.0 mi NNW 4.6 mph - N/A Rain , Thunderstorm Rain
6:15 PM 78.8 °F - 73.4 °F 83% 30.11 in 10.0 mi Calm Calm - N/A Rain Light Rain
6:55 PM 78.8 °F - 75.2 °F 89% 30.09 in 7.0 mi SSE 5.8 mph - 0.01 in   Clear
7:15 PM 78.8 °F - 73.4 °F 83% 30.10 in 10.0 mi SE 4.6 mph - N/A   Clear
7:35 PM 78.8 °F - 75.2 °F 89% 30.10 in 10.0 mi SSE 3.5 mph - N/A   Clear
7:55 PM 78.8 °F - 75.2 °F 89% 30.10 in 10.0 mi Calm Calm - N/A   Clear
8:35 PM 77.0 °F - 73.4 °F 89% 30.11 in 10.0 mi Calm Calm - N/A   Clear
8:55 PM 77.0 °F - 73.4 °F 89% 30.11 in 7.0 mi Calm Calm - N/A   Clear
9:55 PM 75.2 °F - 73.4 °F 94% 30.13 in 10.0 mi Calm Calm - N/A   Clear
10:35 PM 75.2 °F - 73.4 °F 94% 30.13 in 10.0 mi Calm Calm - N/A   Clear
10:55 PM 75.2 °F - 73.4 °F 94% 30.14 in 7.0 mi Calm Calm - N/A   Clear
11:15 PM 73.4 °F - 73.4 °F 100% 30.14 in 7.0 mi South 3.5 mph - N/A   Clear